Location: Antin
(43.3330°N, 0.2804°E)
Time: 22:11:10
(UTC+00:00)

SME Rocket - Pass Details

Date: 06 June 2022
Orbit: 551 x 2650 km, 99.9° (Epoch: 01 July)

Event Time Altitude Azimuth Distance (km) Brightness Sun altitude
Exits shadow 23:09:37 - 92° (E) 3,183 6.6 -23.0°
Reaches altitude 10° 23:13:03 10° 63° (ENE) 2,621 6.4 -23.1°
Maximum altitude 23:15:12 12° 41° (NE) 2,664 6.7 -23.2°
Drops below altitude 10° 23:17:38 10° 19° (NNE) 3,058 7.4 -23.3°
Sets 23:22:47 0° 354° (N) 4,535 8.9 -23.5°
